Farmington, MO

9:47 AM CDT on September 19, 2017 (GMT -0500)
Farmington Regional

Weather History for KFAM - February, 2014

Change the Weather History Date:

Sunday, February 16, 2014

  Actual Average Record
Temperature  
Mean Temperature 28 °F -  
Max Temperature 33 °F 45 °F 71 °F (2011)
Min Temperature 24 °F 29 °F 6 °F (2007)
Degree Days  
Heating Degree Days 36    
Moisture  
Dew Point 25 °F    
Average Humidity 82    
Maximum Humidity 93    
Minimum Humidity 70    
Precipitation  
Precipitation 0.00 in - - ()
Sea Level Pressure  
Sea Level Pressure 30.14 in    
Wind  
Wind Speed 6 mph (NNE)    
Max Wind Speed 10 mph    
Max Gust Speed 16 mph    
Visibility 8 miles    
Events      
Averages and records for this station are not official NWS values.
T = Trace of Precipitation, MM = Missing Value Source: NWS Daily Summary

Daily Weather History Graph

Daily Weather History Graph

Search for Another Location

Airport or City:

Trip Planner

Search our weather history database for the weather conditions in past years. The results will help you decide how hot, cold, wet, or windy it might be!

Date:

Astronomy

Feb. 16, 2014 Rise Set
Actual Time 6:50 AM CST 5:41 PM CST
Civil Twilight 6:23 AM CST 6:08 PM CST
Nautical Twilight 5:52 AM CST 6:39 PM CST
Astronomical Twilight 5:22 AM CST 7:09 PM CST
Moon 7:35 PM CST (2/16) 7:22 AM CST (2/16)
Length of Visible Light 11h 45m
Length of Day
10h 51m
Full, 97% of the Moon is Illuminated
Feb 16
Full
Feb 22
Last Quarter
Mar 1
New
Mar 8
First Quarter
Mar 16
Full

Hourly Weather History & Observations

Time (CST) Temp. Windchill Dew Point Humidity Pressure Visibility Wind Dir Wind Speed Gust Speed Precip Events Conditions
12:15 AM 26.6 °F - 21.2 °F 80% 29.99 in 10.0 mi Calm Calm - N/A   Clear
12:35 AM 26.6 °F 20.0 °F 21.2 °F 80% 29.99 in 10.0 mi SSE 5.8 mph - N/A   Clear
12:55 AM 24.8 °F 16.9 °F 21.2 °F 86% 29.99 in 10.0 mi South 6.9 mph - N/A   Clear
1:15 AM 24.8 °F - 21.2 °F 86% 29.99 in 10.0 mi Calm Calm - N/A   Clear
1:35 AM 24.8 °F 20.5 °F 21.2 °F 86% 29.98 in 10.0 mi SSW 3.5 mph - N/A   Clear
1:55 AM 24.8 °F 20.5 °F 23.0 °F 93% 29.99 in 10.0 mi SW 3.5 mph - N/A   Clear
2:15 AM 24.8 °F 17.9 °F 21.2 °F 86% 29.98 in 10.0 mi West 5.8 mph - N/A   Clear
2:35 AM 30.2 °F 23.4 °F 24.8 °F 80% 29.98 in 10.0 mi West 6.9 mph - N/A   Clear
2:55 AM 33.8 °F 28.6 °F 24.8 °F 70% 29.98 in 10.0 mi West 5.8 mph - N/A   Clear
3:15 AM 33.8 °F 27.0 °F 26.6 °F 75% 29.99 in 10.0 mi WNW 8.1 mph - N/A   Clear
3:35 AM 33.8 °F 27.0 °F 26.6 °F 75% 29.99 in 10.0 mi NW 8.1 mph - N/A   Clear
3:55 AM 33.8 °F 29.6 °F 24.8 °F 70% 30.00 in 10.0 mi West 4.6 mph - N/A   Clear
4:15 AM 32.0 °F 27.5 °F 24.8 °F 75% 30.02 in 10.0 mi NW 4.6 mph - N/A   Clear
4:35 AM 32.0 °F 25.6 °F 24.8 °F 75% 30.04 in 10.0 mi NW 6.9 mph - N/A   Clear
4:55 AM 30.2 °F 23.4 °F 24.8 °F 80% 30.05 in 10.0 mi NW 6.9 mph - N/A   Partly Cloudy
5:15 AM 30.2 °F 21.9 °F 24.8 °F 80% 30.06 in 10.0 mi NNW 9.2 mph - N/A   Mostly Cloudy
5:35 AM 30.2 °F 24.3 °F 24.8 °F 80% 30.06 in 10.0 mi NW 5.8 mph - N/A   Overcast
5:55 AM 30.2 °F 22.6 °F 24.8 °F 80% 30.06 in 10.0 mi North 8.1 mph - N/A   Overcast
6:15 AM 30.2 °F 23.4 °F 24.8 °F 80% 30.07 in 10.0 mi NNW 6.9 mph 16.1 mph N/A   Overcast
6:35 AM 30.2 °F 21.9 °F 24.8 °F 80% 30.08 in 10.0 mi North 9.2 mph - N/A   Overcast
6:55 AM 30.2 °F 22.6 °F 26.6 °F 86% 30.10 in 10.0 mi NNW 8.1 mph - N/A   Overcast
7:15 AM 30.2 °F 23.4 °F 24.8 °F 80% 30.11 in 7.0 mi NNW 6.9 mph - N/A   Overcast
7:35 AM 30.2 °F 23.4 °F 26.6 °F 86% 30.13 in 7.0 mi NNW 6.9 mph - N/A   Overcast
7:55 AM 30.2 °F 23.4 °F 26.6 °F 86% 30.14 in 8.0 mi NNW 6.9 mph - N/A   Overcast
8:15 AM 30.2 °F 22.6 °F 26.6 °F 86% 30.15 in 8.0 mi NW 8.1 mph - N/A   Overcast
8:35 AM 30.2 °F 23.4 °F 26.6 °F 86% 30.17 in 8.0 mi NNW 6.9 mph - N/A   Overcast
8:55 AM 30.2 °F 21.3 °F 26.6 °F 86% 30.17 in 8.0 mi NNW 10.4 mph - N/A   Overcast
9:15 AM 30.2 °F 21.9 °F 26.6 °F 86% 30.18 in 9.0 mi NNW 9.2 mph - N/A   Overcast
9:35 AM 30.2 °F 23.4 °F 26.6 °F 86% 30.19 in 7.0 mi North 6.9 mph - N/A   Overcast
9:55 AM 30.2 °F 22.6 °F 26.6 °F 86% 30.20 in 6.0 mi North 8.1 mph - N/A   Overcast
10:15 AM 30.2 °F 22.6 °F 26.6 °F 86% 30.20 in 5.0 mi North 8.1 mph - N/A   Overcast
10:35 AM 30.2 °F 21.9 °F 26.6 °F 86% 30.21 in 6.0 mi North 9.2 mph - N/A   Overcast
10:55 AM 32.0 °F 25.6 °F 26.6 °F 80% 30.21 in 6.0 mi North 6.9 mph - N/A   Overcast
11:15 AM 32.0 °F 24.8 °F 26.6 °F 80% 30.23 in 6.0 mi North 8.1 mph - N/A   Overcast
11:35 AM 32.0 °F 25.6 °F 26.6 °F 80% 30.23 in 6.0 mi NNW 6.9 mph - N/A   Overcast
11:55 AM 32.0 °F 25.6 °F 26.6 °F 80% 30.22 in 6.0 mi North 6.9 mph - N/A   Overcast
12:15 PM 32.0 °F 26.4 °F 26.6 °F 80% 30.22 in 7.0 mi North 5.8 mph - N/A   Overcast
12:35 PM 32.0 °F 25.6 °F 26.6 °F 80% 30.21 in 7.0 mi NNW 6.9 mph - N/A   Overcast
12:55 PM 32.0 °F 25.6 °F 26.6 °F 80% 30.19 in 7.0 mi NNE 6.9 mph - N/A   Overcast
1:15 PM 32.0 °F 27.5 °F 26.6 °F 80% 30.20 in 7.0 mi NNE 4.6 mph - N/A   Overcast
1:35 PM 33.8 °F 27.0 °F 26.6 °F 75% 30.18 in 7.0 mi NNE 8.1 mph - N/A   Overcast
1:55 PM 33.8 °F 29.6 °F 26.6 °F 75% 30.19 in 8.0 mi NNE 4.6 mph - N/A   Overcast
2:15 PM 33.8 °F 28.6 °F 26.6 °F 75% 30.19 in 9.0 mi NNW 5.8 mph - N/A   Overcast
2:35 PM 33.8 °F 27.7 °F 26.6 °F 75% 30.18 in 8.0 mi NNE 6.9 mph - N/A   Overcast
2:55 PM 33.8 °F 28.6 °F 26.6 °F 75% 30.18 in 8.0 mi ENE 5.8 mph - N/A   Mostly Cloudy
3:15 PM 33.8 °F - 26.6 °F 75% 30.19 in 8.0 mi Calm Calm - N/A   Mostly Cloudy
3:35 PM 33.8 °F 29.6 °F 26.6 °F 75% 30.18 in 9.0 mi East 4.6 mph - N/A   Partly Cloudy
3:55 PM 33.8 °F 29.6 °F 26.6 °F 75% 30.18 in 10.0 mi NE 4.6 mph - N/A   Clear
4:15 PM 33.8 °F 28.6 °F 26.6 °F 75% 30.19 in 10.0 mi ENE 5.8 mph - N/A   Partly Cloudy
4:35 PM 33.8 °F 28.6 °F 26.6 °F 75% 30.20 in 10.0 mi East 5.8 mph - N/A   Scattered Clouds
4:55 PM 33.8 °F 28.6 °F 26.6 °F 75% 30.20 in 9.0 mi ENE 5.8 mph - N/A   Scattered Clouds
5:15 PM 32.0 °F 25.6 °F 24.8 °F 75% 30.20 in 9.0 mi East 6.9 mph - N/A   Partly Cloudy
5:35 PM 30.2 °F 24.3 °F 24.8 °F 80% 30.20 in 8.0 mi East 5.8 mph - N/A   Clear
5:55 PM 30.2 °F 23.4 °F 24.8 °F 80% 30.21 in 8.0 mi East 6.9 mph - N/A   Clear
6:15 PM 28.4 °F 19.7 °F 24.8 °F 86% 30.20 in 10.0 mi East 9.2 mph - N/A   Partly Cloudy
6:35 PM 28.4 °F 19.7 °F 24.8 °F 86% 30.20 in 10.0 mi East 9.2 mph - N/A   Clear
6:55 PM 28.4 °F 19.7 °F 24.8 °F 86% 30.20 in 10.0 mi East 9.2 mph - N/A   Clear
7:15 PM 28.4 °F 19.1 °F 23.0 °F 80% 30.20 in 10.0 mi East 10.4 mph - N/A   Clear
7:35 PM 28.4 °F 19.1 °F 23.0 °F 80% 30.20 in 9.0 mi East 10.4 mph - N/A   Clear
7:55 PM 28.4 °F 21.2 °F 23.0 °F 80% 30.19 in 8.0 mi East 6.9 mph - N/A   Clear
8:15 PM 28.4 °F 20.4 °F 23.0 °F 80% 30.20 in 8.0 mi ESE 8.1 mph - N/A   Clear
8:35 PM 26.6 °F 17.5 °F 24.8 °F 93% 30.19 in 7.0 mi ESE 9.2 mph - N/A   Scattered Clouds
8:55 PM 26.6 °F 19.1 °F 23.0 °F 86% 30.19 in 7.0 mi ESE 6.9 mph - N/A   Scattered Clouds
9:15 PM 26.6 °F 20.0 °F 23.0 °F 86% 30.18 in 7.0 mi East 5.8 mph - N/A   Clear
9:35 PM 26.6 °F 19.1 °F 23.0 °F 86% 30.18 in 6.0 mi East 6.9 mph - N/A   Clear
9:55 PM 26.6 °F 19.1 °F 24.8 °F 93% 30.18 in 6.0 mi East 6.9 mph - N/A   Clear
10:15 PM 26.6 °F 19.1 °F 23.0 °F 86% 30.17 in 6.0 mi East 6.9 mph - N/A   Clear
10:35 PM 26.6 °F 19.1 °F 24.8 °F 93% 30.17 in 6.0 mi East 6.9 mph - N/A   Partly Cloudy
10:55 PM 26.6 °F 17.5 °F 23.0 °F 86% 30.16 in 5.0 mi East 9.2 mph - N/A   Clear
11:15 PM 26.6 °F 19.1 °F 23.0 °F 86% 30.15 in 6.0 mi ESE 6.9 mph - N/A   Clear
11:35 PM 26.6 °F 18.2 °F 23.0 °F 86% 30.15 in 6.0 mi ESE 8.1 mph - N/A   Partly Cloudy
11:55 PM 26.6 °F 19.1 °F 23.0 °F 86% 30.15 in 6.0 mi ESE 6.9 mph - N/A   Clear